Regional Weather Roundup
Issued by NWS Wilmington, NC

Home | Current Version | Previous Version | Text Only | Print | Product List | Glossary On
Versions: 1 2 3 4 5 6 7 8 9 10 11 12 13 14 15 16 17 18 19 20 21 22 23 24 25 26 27
000
ASUS42 KILM 260213
RWRILM
RWRILM
REGIONAL HOURLY WEATHER ROUNDUP
NATIONAL WEATHER SERVICE WILMINGTON NC
1000 PM EDT WED MAY 25 2016

NOTE: "FAIR" INDICATES FEW OR NO CLOUDS BELOW 12,000 FEET WITH NO
SIGNIFICANT WEATHER AND/OR OBSTRUCTIONS TO VISIBILITY.

...............WFO WILMINGTON COUNTY WARNING AREA...............

......COASTAL NC AND SC COUNTIES......

CITY           SKY/WX    TMP DP  RH WIND       PRES   REMARKS
WILMINGTON     CLEAR     72  65  78 S7        30.20R
N MYRTLE BEACH CLEAR     75  69  81 S12       30.20R
MYRTLE BEACH   CLEAR     75  63  64 S12       30.21S

......INLAND NC AND SC COUNTIES.......

CITY           SKY/WX    TMP DP  RH WIND       PRES   REMARKS
LUMBERTON      PTCLDY    74  63  68 S6        30.17R
ELIZABETHTOWN  NOT AVBL
WHITEVILLE     CLEAR     72  64  76 S5        30.19R
FLORENCE       CLEAR     73  63  70 SE7       30.18R
DARLINGTON     CLEAR     72  64  76 CALM      30.18R
KINGSTREE      FAIR      73  59  60 SE5       30.18R
HARTSVILLE     FAIR      68  59  73 CALM      30.17S
BENNETTSVILLE  FAIR      73  68  83 CALM      30.16S
CONWAY         FAIR      68  64  88 CALM      30.20R
GEORGETOWN     FAIR      70  64  83 S3        30.21R
MARION         FAIR      73  61  64 S7        30.18R

....................REST OF NORTH CAROLINA......................

.........EASTERN NC.........

CITY           SKY/WX    TMP DP  RH WIND       PRES   REMARKS
CAPE HATTERAS  CLEAR     71  67  87 SW9       30.20R
JACKSONVILLE   CLEAR     69  62  78 S7        30.20R
MOREHEAD CITY  CLEAR     72  68  87 S8        30.20S
KENANSVILLE    CLEAR     73  59  61 CALM      30.19R
NEW BERN       CLEAR     71  60  68 S8        30.20R
ELIZABETH CITY CLEAR     74  60  61 S10       30.16R

.........CENTRAL NC.........

CITY           SKY/WX    TMP DP  RH WIND       PRES   REMARKS
RALEIGH DURHAM PTCLDY    73  56  54 CALM      30.16R
ROCKY MOUNT    PTCLDY    68  62  81 CALM      30.16R
ROANOKE RAPIDS NOT AVBL
FAYETTEVILLE   PTCLDY    77  61  57 S10       30.16R
HOFFMAN        CLEAR     70  61  73 S2        30.17R

.........WESTERN NC.........

CITY           SKY/WX    TMP DP  RH WIND       PRES   REMARKS
CHARLOTTE      PTCLDY    74  58  57 SW3       30.19R
GREENSBORO     PTCLDY    75  56  51 S3        30.17R
HICKORY        NOT AVBL
BOONE          NOT AVBL
ASHEVILLE      NOT AVBL

.....................REST OF SOUTH CAROLINA.....................

.........EASTERN SC.........

CITY           SKY/WX    TMP DP  RH WIND       PRES   REMARKS
CHARLESTON     CLEAR     73  65  75 S8        30.20R
BEAUFORT MCAS  CLEAR     75  66  73 CALM      30.20R
HILTON HEAD    CLEAR     73  68  83 S7        30.21R

.........CENTRAL SC.........

CITY           SKY/WX    TMP DP  RH WIND       PRES   REMARKS
COLUMBIA       CLEAR     73  61  65 W3        30.17R
ORANGEBURG     CLEAR     72  60  66 S3        30.19R
SUMTER SHAW    CLEAR     73  61  66 CALM      30.15R

.........WESTERN SC.........

CITY           SKY/WX    TMP DP  RH WIND       PRES   REMARKS
GREENVILLE     NOT AVBL
ROCK HILL      CLEAR     72  59  63 CALM      30.20R
ANDERSON       PTCLDY    72  61  68 CALM      30.19R
CLEMSON        NOT AVBL
GREENWOOD      CLEAR     72  56  57 CALM      30.21R


...................COASTAL AND OFFSHORE REPORTS..................

................LOCAL PIERS AND NC RESERVE................


STATION/POSITION TIME  SKY/WX   TEMP    WIND        PRES    VSBY
                                AIR SEA DIR/SP/G
                 (UTC)          (F)     (DEG/KT/KT) (MB)    (MI)
JOHNY MRCER PIER 0100               75              1021.6R
NC RESRV MASNBRO NOT AVBL
OCEAN CREST PIER NOT AVBL
SPRINGMAID  PIER 0100               75              1021.9R


................COASTAL AND OFFSHORE BUOYS................


STATION/POSITION TIME  SKY/WX   TEMP    WIND        PRES    VSBY
                                AIR SEA DIR/SP/G
                 (UTC)          (F)     (DEG/KT/KT) (MB)    (MI)
DIMNDSHOAL 41025 0150            73 71  230/  8/ 10 1022.5R
WVE H/P(F/S)=  2/ 7 SWL H/P/D(F/S/D)=  2/130/ 7

CAPE LOOKOUT     0200            72     210/  6/  8 1022.7R
ONSLOW BAY 41036 NOT AVBL
ONSLOW BAY 41064 0108            76 74  200/  6/  8 1022.6R
ONSLOW BAY 41159 0155               74                N/A
WVE H/P(F/S)=  2/ 9

5SE WRITBC 41038 0108            74 73  210/  8/ 10 1023.2R
MASNBO INL 41110 0106               73                N/A
WVE H/P(F/S)=  2/ 8

WILM HARBR 41108 0156               74                N/A
WVE H/P(F/S)=  2/ 8

27SE WRITB 41037 0108            75 74  220/  8/ 10 1022.2R
FRYING PAN 41013 0200            78 77  180/  8/ 10 1023.0R
SUNST NRSH 41024 0108            74 74  190/ 10/ 12 1022.1R
CAPRS NRSH 41029 0108            76 76  190/ 10/ 12 1022.1R
EDISTO     41004 0150            78 77  190/ 10/ 12 1022.5R
WVE H/P(F/S)=  2/ 8 SWL H/P/D(F/S/D)=  2/ 8



..........OFFSHORE BUOYS BEYOND 100 NM OFFSHORE...........
.....IN A TRIANGLE---HAT TO BERMUDA TO BAHAMAS TO HAT.....


STATION/POSITION TIME  SKY/WX   TEMP    WIND        PRES    VSBY
                                AIR SEA DIR/SP/G
                 (UTC)          (F)     (DEG/KT/KT) (MB)    (MI)
150E HAT   41001 NOT AVBL
W BERMUDA  41048 0150            74 76   60/ 12/ 14 1023.5R
WVE H/P(F/S)=  3/ 8 SWL H/P/D(F/S/D)=  3/120/ 8

ATLANTIC S 41049 0150            78 78  100/ 14/ 16 1022.3R
WVE H/P(F/S)=  5/ 8 SWL H/P/D(F/S/D)=  3/130/ 8

E BAHAMAS  41046 0100            79 81  340/  6/  8 1018.5R
NE BAHAMAS 41047 0100            78 80   60/ 14/ 16 1019.5S
120E CANVRL41010 0120            76 78   60/ 12/ 14 1022.2R

END




USA.gov is the U.S. government's official web portal to all federal, state and local government web resources and services.